{"data":{"norad_id":53620,"intl_designator":"2022-104AJ","name":"STARLINK-4615","alt_names":[],"object_type":"PAYLOAD","status":"ACTIVE","operator":null,"country":"US","launch_date":"2022-08-28","launch_site_code":"AFETR","launch_vehicle":null,"mission":null,"orbit_class":"UNKNOWN","rcs_meters":null,"size_class":null,"mass_kg":null,"dimensions":null,"purposes":["comms"],"wikipedia_slug":null,"has_3d_model":false,"image_url":null,"decayed_at":null,"tle_current":{"epoch":"2026-09-20T21:21:01.286208Z","epoch_age_seconds":48701,"freshness":"FRESH","line1":"1 53620U 22104AJ  26263.88959822 -.00000015  00000+0  10702-4 0  9995","line2":"2 53620  53.1594  65.9411 0001133  81.3687 278.7444 15.34384874225374","mean_motion":15.34384874,"eccentricity":0.0001133,"inclination_deg":53.1594,"raan_deg":65.9411,"arg_perigee_deg":81.3687,"mean_anomaly_deg":278.7444,"bstar":1.0702e-5,"rev_number":22537,"period_min":93.848683234608,"perigee_km":461.97312594313,"apogee_km":463.52327052905,"semimajor_km":6840.8851982361,"source":"CELESTRAK","updated_at":"2026-09-21T09:00:32.941224Z"}}}